"Period start","avg(HW err(1)/warn(2) (#))","avg(Visibility (m))","avg(Weather code (#))","avg(Precip intensity (mm/h))","min(HW err(1)/warn(2) (#))","max(HW err(1)/warn(2) (#))","std(HW err(1)/warn(2) (#))","med(HW err(1)/warn(2) (#))","min(Visibility (m))","max(Visibility (m))","std(Visibility (m))","med(Visibility (m))","min(Weather code (#))","max(Weather code (#))","std(Weather code (#))","med(Weather code (#))","min(Precip intensity (mm/h))","max(Precip intensity (mm/h))","std(Precip intensity (mm/h))","med(Precip intensity (mm/h))"
2017-07-19 00:00:00,2,50000,0,0.00,2,2,0,2,50000,50000,0,50000,0,0,0,0,0.00,0.00,0.00,0.00
2017-07-19 00:10:00,2,49751,0,0.00,2,2,0,2,47510,50000,747,50000,0,0,0,0,0.00,0.00,0.00,0.00
2017-07-19 00:20:00,2,49896,0,0.00,2,2,0,2,48965,50000,310,50000,0,0,0,0,0.00,0.00,0.00,0.00
2017-07-19 00:30:00,2,49804,0,0.00,2,2,0,2,48039,50000,588,50000,0,0,0,0,0.00,0.00,0.00,0.00
2017-07-19 00:40:00,2,35349,18,1.19,2,2,0,2,9580,50000,14991,39610,0,61,23,0,0.00,10.85,3.22,0.00
2017-07-19 00:50:00,2,19593,42,2.04,2,2,0,2,6667,38995,9896,15113,0,61,23,50,0.00,8.10,2.63,0.95
2017-07-19 01:00:00,2,41296,20,0.64,2,2,0,2,6626,50000,14774,49348,0,61,26,0,0.00,6.20,1.85,0.00
2017-07-19 01:10:00,2,42420,6,1.32,2,2,0,2,7496,50000,13723,50000,0,62,19,0,0.00,13.20,3.96,0.00
2017-07-19 01:20:00,2,49826,0,0.00,2,2,0,2,48258,50000,523,50000,0,0,0,0,0.00,0.00,0.00,0.00
2017-07-19 01:30:00,2,31167,25,0.91,2,2,0,2,13713,50000,13158,30192,0,61,26,20,0.00,4.95,1.76,0.03
2017-07-19 01:40:00,2,49966,0,0.00,2,2,0,2,49663,50000,101,50000,0,0,0,0,0.00,0.00,0.00,0.00
2017-07-19 01:50:00,2,41101,12,0.23,2,2,0,2,26557,50000,8170,44284,0,61,24,0,0.00,2.05,0.61,0.00
2017-07-19 02:00:00,2,48971,12,0.00,2,2,0,2,43287,50000,2074,50000,0,61,24,0,0.00,0.00,0.00,0.00
2017-07-19 02:10:00,2,50000,0,0.00,2,2,0,2,50000,50000,0,50000,0,0,0,0,0.00,0.00,0.00,0.00
2017-07-19 02:20:00,2,46804,4,0.00,2,2,0,2,26354,50000,6957,49856,0,40,12,0,0.00,0.00,0.00,0.00
2017-07-19 02:30:00,2,45979,14,0.04,2,2,0,2,28074,50000,6562,50000,0,51,22,0,0.00,0.40,0.12,0.00
2017-07-19 02:40:00,2,50000,0,0.00,2,2,0,2,50000,50000,0,50000,0,0,0,0,0.00,0.00,0.00,0.00
2017-07-19 02:50:00,2,40059,8,0.04,2,2,0,2,9136,50000,15599,47036,0,40,16,0,0.00,0.40,0.12,0.00
2017-07-19 03:00:00,2,31324,10,0.34,2,2,0,2,11548,45929,11540,33682,0,61,21,0,0.00,2.15,0.71,0.00
2017-07-19 03:10:00,2,41944,0,0.00,2,2,0,2,19752,50000,11510,47662,0,0,0,0,0.00,0.00,0.00,0.00
2017-07-19 03:20:00,2,44346,0,0.00,2,2,0,2,26377,50000,8129,48624,0,0,0,0,0.00,0.00,0.00,0.00
2017-07-19 03:30:00,2,49710,0,0.00,2,2,0,2,47095,50000,872,50000,0,0,0,0,0.00,0.00,0.00,0.00
2017-07-19 03:40:00,2,49084,0,0.00,2,2,0,2,46091,50000,1335,49959,0,0,0,0,0.00,0.00,0.00,0.00
2017-07-19 03:50:00,2,32301,8,0.75,2,2,0,2,10209,50000,14980,35590,0,40,16,0,0.00,6.35,1.90,0.00
2017-07-19 04:00:00,2,37968,6,0.06,2,2,0,2,9704,50000,14089,41736,0,61,18,0,0.00,0.55,0.17,0.00
2017-07-19 04:10:00,2,19060,51,1.33,2,2,0,2,3913,39877,12524,14710,0,61,18,56,0.00,7.25,2.10,0.62
2017-07-19 04:20:00,2,39676,0,0.00,2,2,0,2,30289,50000,5305,40736,0,0,0,0,0.00,0.00,0.00,0.00
2017-07-19 04:30:00,2,46530,0,0.00,2,2,0,2,32360,50000,5653,50000,0,0,0,0,0.00,0.00,0.00,0.00
2017-07-19 04:40:00,2,39434,6,0.15,2,2,0,2,5631,50000,16901,47678,0,61,18,0,0.00,1.50,0.45,0.00
2017-07-19 04:50:00,2,34031,12,0.47,2,2,0,2,5945,49592,13439,39640,0,61,24,0,0.00,3.85,1.15,0.00
2017-07-19 05:00:00,2,44276,0,0.00,2,2,0,2,33976,50000,4447,44175,0,0,0,0,0.00,0.00,0.00,0.00
2017-07-19 05:10:00,2,46827,0,0.00,2,2,0,2,37111,50000,4533,49234,0,0,0,0,0.00,0.00,0.00,0.00
2017-07-19 05:20:00,2,28554,18,0.39,2,2,0,2,7104,43535,11783,30294,0,61,28,0,0.00,2.10,0.74,0.00
2017-07-19 05:30:00,2,45306,0,0.00,2,2,0,2,35911,50000,4447,46620,0,0,0,0,0.00,0.00,0.00,0.00
2017-07-19 05:40:00,2,32224,30,0.66,2,2,0,2,8015,50000,14809,36164,0,61,30,30,0.00,2.05,0.81,0.12
2017-07-19 05:50:00,2,43310,12,0.00,2,2,0,2,29444,50000,6601,44410,0,61,24,0,0.00,0.00,0.00,0.00
2017-07-19 06:00:00,2,25052,24,0.42,2,2,0,2,8309,50000,16409,15620,0,61,30,0,0.00,2.20,0.73,0.00
2017-07-19 06:10:00,2,39813,4,1.09,2,2,0,2,3854,50000,16072,49924,0,40,12,0,0.00,10.90,3.27,0.00
2017-07-19 06:20:00,2,15389,49,2.21,2,2,0,2,2732,42029,11995,11500,0,61,19,61,0.00,8.25,2.79,0.70
2017-07-19 06:30:00,2,13892,46,0.65,2,2,0,2,8568,28428,5572,11402,0,61,18,50,0.00,2.05,0.63,0.53
2017-07-19 06:40:00,2,24844,61,0.49,2,2,0,2,14588,36162,5994,25130,61,61,0,61,0.00,2.40,0.70,0.22
2017-07-19 06:50:00,2,38356,12,0.09,2,2,0,2,25218,50000,9311,36074,0,61,24,0,0.00,0.90,0.27,0.00
2017-07-19 07:00:00,2,47432,0,0.00,2,2,0,2,39300,50000,3102,47926,0,0,0,0,0.00,0.00,0.00,0.00
2017-07-19 07:10:00,2,49368,0,0.00,2,2,0,2,46968,50000,1033,50000,0,0,0,0,0.00,0.00,0.00,0.00
2017-07-19 07:20:00,2,37864,37,0.07,2,2,0,2,11824,50000,14656,45310,0,61,30,61,0.00,0.60,0.18,0.00
2017-07-19 07:30:00,2,43509,0,0.00,2,2,0,2,8983,50000,12659,49390,0,0,0,0,0.00,0.00,0.00,0.00
2017-07-19 07:40:00,2,33465,23,0.04,2,2,0,2,7964,50000,14212,32444,0,51,24,20,0.00,0.40,0.12,0.00
2017-07-19 07:50:00,2,36302,0,0.00,2,2,0,2,16606,50000,9617,37362,0,0,0,0,0.00,0.00,0.00,0.00
2017-07-19 08:00:00,2,35536,18,0.03,2,2,0,2,13872,47526,12387,42102,0,61,28,0,0.00,0.30,0.09,0.00
2017-07-19 08:10:00,2,47563,0,0.00,2,2,0,2,40072,50000,3552,50000,0,0,0,0,0.00,0.00,0.00,0.00
2017-07-19 08:20:00,2,46773,0,0.00,2,2,0,2,41004,50000,3627,48872,0,0,0,0,0.00,0.00,0.00,0.00
2017-07-19 08:30:00,2,49409,0,0.00,2,2,0,2,46393,50000,1185,50000,0,0,0,0,0.00,0.00,0.00,0.00
2017-07-19 08:40:00,2,49355,0,0.00,2,2,0,2,44668,50000,1598,50000,0,0,0,0,0.00,0.00,0.00,0.00
2017-07-19 08:50:00,2,50000,0,0.00,2,2,0,2,50000,50000,0,50000,0,0,0,0,0.00,0.00,0.00,0.00
2017-07-19 09:00:00,2,45893,0,0.00,2,2,0,2,26188,50000,7694,50000,0,0,0,0,0.00,0.00,0.00,0.00
2017-07-19 09:10:00,2,43536,0,0.00,2,2,0,2,31094,50000,5103,44808,0,0,0,0,0.00,0.00,0.00,0.00
2017-07-19 09:20:00,2,46095,0,0.00,2,2,0,2,37237,50000,3989,47162,0,0,0,0,0.00,0.00,0.00,0.00
2017-07-19 09:30:00,2,46628,0,0.00,2,2,0,2,39992,50000,3160,47411,0,0,0,0,0.00,0.00,0.00,0.00
2017-07-19 09:40:00,2,49660,0,0.00,2,2,0,2,47376,50000,796,50000,0,0,0,0,0.00,0.00,0.00,0.00
2017-07-19 09:50:00,2,49522,0,0.00,2,2,0,2,46364,50000,1089,50000,0,0,0,0,0.00,0.00,0.00,0.00
2017-07-19 10:00:00,2,48305,0,0.00,2,2,0,2,42570,50000,2758,50000,0,0,0,0,0.00,0.00,0.00,0.00
2017-07-19 10:10:00,2,47175,0,0.00,2,2,0,2,38218,50000,4302,50000,0,0,0,0,0.00,0.00,0.00,0.00
2017-07-19 10:20:00,2,50000,0,0.00,2,2,0,2,50000,50000,0,50000,0,0,0,0,0.00,0.00,0.00,0.00
2017-07-19 10:30:00,2,48571,0,0.00,2,2,0,2,45304,50000,1865,49750,0,0,0,0,0.00,0.00,0.00,0.00
2017-07-19 10:40:00,2,46294,0,0.00,2,2,0,2,36176,50000,4236,48014,0,0,0,0,0.00,0.00,0.00,0.00
2017-07-19 10:50:00,2,49328,0,0.00,2,2,0,2,44710,50000,1576,50000,0,0,0,0,0.00,0.00,0.00,0.00
2017-07-19 11:00:00,2,49943,0,0.00,2,2,0,2,49429,50000,171,50000,0,0,0,0,0.00,0.00,0.00,0.00
2017-07-19 11:10:00,2,49828,0,0.00,2,2,0,2,48568,50000,429,50000,0,0,0,0,0.00,0.00,0.00,0.00
2017-07-19 11:20:00,2,47903,0,0.00,2,2,0,2,42941,50000,2754,50000,0,0,0,0,0.00,0.00,0.00,0.00
2017-07-19 11:30:00,2,50000,0,0.00,2,2,0,2,50000,50000,0,50000,0,0,0,0,0.00,0.00,0.00,0.00
2017-07-19 11:40:00,2,48080,0,0.00,2,2,0,2,41932,50000,2814,49794,0,0,0,0,0.00,0.00,0.00,0.00
2017-07-19 11:50:00,2,45474,0,0.00,2,2,0,2,35144,50000,5279,48074,0,0,0,0,0.00,0.00,0.00,0.00
2017-07-19 12:00:00,2,40563,0,0.00,2,2,0,2,29276,49626,7318,41361,0,0,0,0,0.00,0.00,0.00,0.00
2017-07-19 12:10:00,2,47238,0,0.00,2,2,0,2,37574,50000,4311,50000,0,0,0,0,0.00,0.00,0.00,0.00
2017-07-19 12:20:00,2,48651,0,0.00,2,2,0,2,41729,50000,2529,50000,0,0,0,0,0.00,0.00,0.00,0.00
2017-07-19 12:30:00,2,47917,0,0.00,2,2,0,2,38870,50000,3489,50000,0,0,0,0,0.00,0.00,0.00,0.00
2017-07-19 12:40:00,2,50000,0,0.00,2,2,0,2,50000,50000,0,50000,0,0,0,0,0.00,0.00,0.00,0.00
2017-07-19 12:50:00,2,50000,0,0.00,2,2,0,2,50000,50000,0,50000,0,0,0,0,0.00,0.00,0.00,0.00
2017-07-19 13:00:00,2,50000,0,0.00,2,2,0,2,50000,50000,0,50000,0,0,0,0,0.00,0.00,0.00,0.00
2017-07-19 13:10:00,2,50000,0,0.00,2,2,0,2,50000,50000,0,50000,0,0,0,0,0.00,0.00,0.00,0.00
2017-07-19 13:20:00,2,50000,0,0.00,2,2,0,2,50000,50000,0,50000,0,0,0,0,0.00,0.00,0.00,0.00
2017-07-19 13:30:00,2,50000,0,0.00,2,2,0,2,50000,50000,0,50000,0,0,0,0,0.00,0.00,0.00,0.00
2017-07-19 13:40:00,2,50000,0,0.00,2,2,0,2,50000,50000,0,50000,0,0,0,0,0.00,0.00,0.00,0.00
2017-07-19 13:50:00,2,49990,0,0.00,2,2,0,2,49900,50000,30,50000,0,0,0,0,0.00,0.00,0.00,0.00
2017-07-19 14:00:00,2,50000,0,0.00,2,2,0,2,50000,50000,0,50000,0,0,0,0,0.00,0.00,0.00,0.00
2017-07-19 14:10:00,2,49903,0,0.00,2,2,0,2,49027,50000,292,50000,0,0,0,0,0.00,0.00,0.00,0.00
2017-07-19 14:20:00,2,49361,0,0.00,2,2,0,2,44869,50000,1540,50000,0,0,0,0,0.00,0.00,0.00,0.00
2017-07-19 14:30:00,2,46085,0,0.00,2,2,0,2,40125,50000,4114,47358,0,0,0,0,0.00,0.00,0.00,0.00
2017-07-19 14:40:00,2,50000,0,0.00,2,2,0,2,50000,50000,0,50000,0,0,0,0,0.00,0.00,0.00,0.00
2017-07-19 14:50:00,2,49134,0,0.00,2,2,0,2,41974,50000,2392,50000,0,0,0,0,0.00,0.00,0.00,0.00
2017-07-19 15:00:00,2,49304,0,0.00,2,2,0,2,43201,50000,2035,50000,0,0,0,0,0.00,0.00,0.00,0.00
2017-07-19 15:10:00,2,47887,0,0.00,2,2,0,2,41735,50000,2793,49817,0,0,0,0,0.00,0.00,0.00,0.00
2017-07-19 15:20:00,2,34769,0,0.00,2,2,0,2,25503,40903,4773,35472,0,0,0,0,0.00,0.00,0.00,0.00
2017-07-19 15:30:00,2,45774,0,0.00,2,2,0,2,32589,50000,6857,50000,0,0,0,0,0.00,0.00,0.00,0.00
2017-07-19 15:40:00,2,50000,0,0.00,2,2,0,2,50000,50000,0,50000,0,0,0,0,0.00,0.00,0.00,0.00
2017-07-19 15:50:00,2,47763,0,0.00,2,2,0,2,38928,50000,3795,49719,0,0,0,0,0.00,0.00,0.00,0.00
2017-07-19 16:00:00,2,43483,0,0.00,2,2,0,2,25185,50000,8997,50000,0,0,0,0,0.00,0.00,0.00,0.00
2017-07-19 16:10:00,2,50000,0,0.00,2,2,0,2,50000,50000,0,50000,0,0,0,0,0.00,0.00,0.00,0.00
2017-07-19 16:20:00,2,32350,23,0.11,2,2,0,2,8294,50000,16888,34008,0,51,24,20,0.00,0.60,0.20,0.00
2017-07-19 16:30:00,2,8729,36,1.48,2,2,0,2,4900,18843,3878,6808,0,52,24,52,0.00,3.45,1.31,1.10
2017-07-19 16:40:00,2,21766,21,0.36,2,2,0,2,12189,40343,8565,19638,0,51,21,20,0.00,1.35,0.48,0.10
2017-07-19 16:50:00,2,44992,15,0.01,2,2,0,2,20616,50000,9496,50000,0,51,23,0,0.00,0.05,0.02,0.00
2017-07-19 17:00:00,2,37149,0,0.00,2,2,0,2,22965,50000,9938,39196,0,0,0,0,0.00,0.00,0.00,0.00
2017-07-19 17:10:00,2,19852,35,0.74,2,2,0,2,6844,48265,16939,9203,0,71,25,41,0.00,1.55,0.66,0.85
2017-07-19 17:20:00,2,32607,7,0.01,2,2,0,2,14271,50000,13586,30162,0,71,21,0,0.00,0.10,0.03,0.00
2017-07-19 17:30:00,2,22049,43,0.01,2,2,0,2,10610,39368,9834,18422,0,71,35,71,0.00,0.05,0.02,0.00
2017-07-19 17:40:00,2,28263,0,0.00,2,2,0,2,26895,31488,1583,27418,0,0,0,0,0.00,0.00,0.00,0.00
2017-07-19 17:50:00,2,38199,0,0.00,2,2,0,2,26635,50000,8246,36170,0,0,0,0,0.00,0.00,0.00,0.00
2017-07-19 18:00:00,2,49831,0,0.00,2,2,0,2,48309,50000,507,50000,0,0,0,0,0.00,0.00,0.00,0.00
2017-07-19 18:10:00,2,50000,0,0.00,2,2,0,2,50000,50000,0,50000,0,0,0,0,0.00,0.00,0.00,0.00
2017-07-19 18:20:00,2,50000,0,0.00,2,2,0,2,50000,50000,0,50000,0,0,0,0,0.00,0.00,0.00,0.00
2017-07-19 18:30:00,2,49951,0,0.00,2,2,0,2,49514,50000,146,50000,0,0,0,0,0.00,0.00,0.00,0.00
2017-07-19 18:40:00,2,49049,0,0.00,2,2,0,2,41416,50000,2559,50000,0,0,0,0,0.00,0.00,0.00,0.00
2017-07-19 18:50:00,2,49255,0,0.00,2,2,0,2,42845,50000,2138,50000,0,0,0,0,0.00,0.00,0.00,0.00
2017-07-19 19:00:00,2,49630,0,0.00,2,2,0,2,46296,50000,1111,50000,0,0,0,0,0.00,0.00,0.00,0.00
2017-07-19 19:10:00,2,48833,0,0.00,2,2,0,2,43418,50000,2191,50000,0,0,0,0,0.00,0.00,0.00,0.00
2017-07-19 19:20:00,2,49957,0,0.00,2,2,0,2,49570,50000,129,50000,0,0,0,0,0.00,0.00,0.00,0.00
2017-07-19 19:30:00,2,43732,23,0.11,2,2,0,2,19866,50000,9951,50000,0,51,24,20,0.00,0.40,0.13,0.05
2017-07-19 19:40:00,2,13303,58,0.60,0,2,1,2,5912,37705,9315,10132,0,74,22,63,0.00,1.25,0.43,0.62
2017-07-19 19:50:00,2,49691,0,0.00,2,2,0,2,46910,50000,927,50000,0,0,0,0,0.00,0.00,0.00,0.00
2017-07-19 20:00:00,2,37346,24,0.12,2,2,0,2,13207,50000,16025,50000,0,61,30,0,0.00,0.65,0.21,0.00
2017-07-19 20:10:00,2,7054,58,2.00,2,2,0,2,2608,16467,4415,5356,52,67,7,56,0.40,5.35,1.40,1.65
2017-07-19 20:20:00,2,6536,65,2.96,2,2,0,2,2848,10223,2253,6706,61,71,4,64,0.35,9.35,3.23,1.50
2017-07-19 20:30:00,2,8772,61,2.54,2,2,0,2,5450,14120,2472,8018,61,61,0,61,0.20,7.25,2.17,1.60
2017-07-19 20:40:00,2,12248,61,3.07,2,2,0,2,6475,25919,5556,10570,61,61,0,61,0.65,5.25,1.47,2.80
2017-07-19 20:50:00,2,7804,66,0.66,2,2,0,2,3275,12108,2508,7653,61,71,5,66,0.20,1.60,0.46,0.45
2017-07-19 21:00:00,2,5587,65,6.39,2,2,0,2,4465,7498,965,5220,61,67,3,67,2.00,24.90,6.94,3.17
2017-07-19 21:10:00,2,17084,61,2.86,2,2,0,2,9835,25912,5001,16409,61,62,0,61,0.05,11.90,3.63,0.90
2017-07-19 21:20:00,2,20825,37,0.77,2,2,0,2,12266,33277,6985,21056,0,61,30,61,0.00,3.65,1.14,0.05
2017-07-19 21:30:00,2,7106,57,6.02,2,2,0,2,5649,11942,1785,6686,40,62,8,61,1.70,12.70,2.94,5.47
2017-07-19 21:40:00,2,9223,58,0.77,2,2,0,2,6711,12045,1474,9188,51,61,4,61,0.00,4.55,1.30,0.22
2017-07-19 21:50:00,2,28661,20,0.02,2,2,0,2,8456,50000,15157,25196,0,51,20,10,0.00,0.10,0.04,0.00
2017-07-19 22:00:00,2,39861,0,0.00,2,2,0,2,24498,50000,9772,43084,0,0,0,0,0.00,0.00,0.00,0.00
2017-07-19 22:10:00,2,49531,0,0.00,2,2,0,2,48275,50000,721,50000,0,0,0,0,0.00,0.00,0.00,0.00
2017-07-19 22:20:00,2,47443,0,0.00,2,2,0,2,40249,50000,3546,49486,0,0,0,0,0.00,0.00,0.00,0.00
2017-07-19 22:30:00,2,46127,8,0.03,2,2,0,2,36311,50000,4166,46351,0,40,16,0,0.00,0.20,0.06,0.00
2017-07-19 22:40:00,2,48794,36,0.10,2,2,0,2,41661,50000,2488,50000,0,51,23,51,0.00,0.40,0.14,0.03
2017-07-19 22:50:00,2,47682,0,0.00,2,2,0,2,46007,50000,1421,47138,0,0,0,0,0.00,0.00,0.00,0.00
2017-07-19 23:00:00,2,35662,42,0.33,2,2,0,2,23883,49152,7928,32676,0,51,15,46,0.00,0.80,0.26,0.23
2017-07-19 23:10:00,2,21204,55,1.09,2,2,0,2,13868,41255,7928,17256,51,61,5,52,0.20,2.10,0.68,0.88
2017-07-19 23:20:00,2,10182,53,0.52,2,2,0,2,8495,12372,1332,10144,51,61,4,52,0.30,0.90,0.23,0.42
2017-07-19 23:30:00,2,13022,51,0.39,2,2,0,2,6694,21664,4277,12310,51,52,0,51,0.10,0.90,0.26,0.35
2017-07-19 23:40:00,2,11850,52,0.86,2,2,0,2,9044,17439,2503,11628,51,52,0,52,0.25,1.85,0.47,0.77
2017-07-19 23:50:00,2,14481,54,1.00,2,2,0,2,10343,19929,3058,13468,51,61,4,52,0.20,2.20,0.63,0.93
